Location: Bergnerzell
(49.1816°N, 10.2565°E)
Time: 04:40:53
(UTC+00:00)

IDEFIX/ARIANE 42P - Pass Details

Date: 19 August 2024
Orbit: 782 x 799 km, 98.5° (Epoch: 08 September)

Event Time Altitude Azimuth Distance (km) Brightness Sun altitude
Rises 23:26:44 0° 32° (NNE) 3,288 6.6 -28.5°
Reaches altitude 10° 23:30:47 10° 64° (ENE) 2,356 5.3 -28.4°
Maximum altitude 23:32:40 12° 85° (E) 2,224 4.9 -28.4°
Enters shadow 23:33:19 12° 93° (E) 2,239 4.9 -28.4°
